Regional Weather Roundup
Issued by NWS Charleston, SC

Current Version | Previous Version | Text Only | Print | Product List | Glossary Off
Versions: 1 2 3 4 5 6 7 8 9 10 11 12 13 14 15 16 17 18 19 20 21 22 23 24 25 26 27 28 29 30 31 32 33 34 35 36 37 38 39 40 41 42 43 44 45 46 47 48 49 50

000
ASUS42 KCHS 251010
RWRCHS

REGIONAL WEATHER ROUNDUP
NATIONAL WEATHER SERVICE CHARLESTON SC
600 AM EDT FRI JUL 25 2014

NOTE: "FAIR" INDICATES FEW OR NO CLOUDS BELOW 12,000 FEET WITH NO
SIGNIFICANT WEATHER AND/OR OBSTRUCTIONS TO VISIBILITY.

NOT ALL STATIONS ARE QUALITY CONTROLLED BY THE NATIONAL
WEATHER SERVICE. USE DATA WITH CAUTION...ESPECIALLY
DEWPOINT OBSERVATIONS.

SCZ027-030-031-034>040-042>050-251100-
...SOUTH CAROLINA...

CITY           SKY/WX    TMP DP  RH WIND       PRES   REMARKS
N CHARLESTON   PTCLDY    79  72  79 W5        29.97R
WATERFRONT PRK   N/A     81 N/A N/A W6          N/A
FORT JOHNSON   NOT AVBL
MOUNT PLEASANT PTSUNNY   81  73  78 W5        29.97S
JOHNS ISLAND   SUNNY     79  70  73 CALM      29.98R
PINOPOLIS        N/A     81  73  78 NW7       29.90R
MONCKS CORNER    N/A     77  73  88 CALM      29.97R
SUMMERVILLE    FAIR      73  73 100 CALM      29.98R
BEAUFORT MCAS  CLEAR     78  73  84 W9        29.98R
BEAUFORT ARPT  FAIR      79  73  83 SW8       29.98R
HILTON HEAD IS NOT AVBL
GEORGETOWN     NOT AVBL
WALTERBORO     SUNNY     77 N/A N/A SW3       29.98R
ORANGEBURG     CLEAR     74  71  91 SW5       29.97R
BARNWELL       FAIR      75  72  88 SW3       29.98R
AIKEN          FAIR      72  72 100 S3        30.01R
MANNING        FAIR      75 N/A N/A CALM      29.97S
KINGSTREE      NOT AVBL
COLUMBIA       PTCLDY    77  71  82 SE6       29.96R
SUMTER         CLEAR     73  72  98 NE3       29.96S
FLORENCE       CLOUDY    73  71  93 E3        29.97R
MYRTLE BEACH   CLOUDY    75  72  88 CALM      29.97S
N MYRTLE BEACH CLOUDY    75  73  93 CALM      29.97R

$$

GAZ063-065-086>088-099>101-113>116-118-119-134-136>141-150-251100-
...GEORGIA...

CITY           SKY/WX    TMP DP  RH WIND       PRES   REMARKS
SAVANNAH ARPT  PTCLDY    77  72  84 W6        30.00R
HUNTER AAF     CLEAR     76  73  92 SW2       29.98R
FORT STEWART   CLEAR     76  73  90 SW5       29.99R
STATESBORO     NOT AVBL
SYLVANIA       SUNNY     76  75  98 CALM      29.99R
CLAXTON        FAIR      75  75 100 CALM      29.99S
THOMSON        CLEAR     73  73 100 MISG      30.02R
AUGUSTA-BUSH   CLEAR     72  70  93 S3        29.96S
AUGUSTA-DANIEL CLEAR     76  72  87 CALM      29.98S
SWAINSBORO     FAIR      77  77 100 CALM      30.00R
VIDALIA          N/A     75  73  94 SW5       29.99S
ALMA           CLEAR     74  72  93 SW3       30.00S
WAYCROSS       CLEAR     77  76  98 SW3       30.02R
JESUP          NOT AVBL
BRUNSWICK      CLEAR     77  73  88 CALM      30.02R
SAINT SIMONS   CLEAR     77  74  90 W7        30.02R

$$

SCZ027-028-034-036>038-045-046-048>050-GAZ119-141-251100-
...LAKE AND SUPPLEMENTAL COASTAL OBSERVATIONS...

STATION/POSITION TIME  TEMP    WIND        PRES    WAVE   SWELL
                       AIR SEA DIR/SP/G            HT/PER HT/PER/DIR
                 (UTC) (F)     (DEG/KT/KT) (MB)    (FT/S) (FT/S/D)
UPR LAKE MARION  NOT AVBL
WINYAH BAY       0900   75     350/  4     1014.0S
LAKE MURRAY      0900   75      80/  6/  8 1013.9S
ACE BASIN NERRS  0900   79     240/  1     1015.0R
FORT PULASKI     1000   78     250/  6/  9 1015.8R
SAPELO ISLAND    0900   79     250/  9     1016.0S

$$

ANZ835-935-AMZ111-154-330-350-352-354-374-450-454-472-251100-
...C-MAN AND BUOY OBSERVATIONS...

STATION/POSITION TIME  TEMP    WIND        PRES    WAVE   SWELL
                       AIR SEA DIR/SP/G            HT/PER HT/PER/DIR
                 (UTC) (F)     (DEG/KT/KT) (MB)    (FT/S) (FT/S/D)
FOLLY BEACH CMAN 0900   80     250/  5/  7 1015.2R
BUOY 41004       1000   83 83  270/ 14/ 17 1014.2R   4/ 5   2/ 7
BUOY 41008       1000   81 84  270/ 16/ 17 1015.7R   3/ 4
5E ST. MARYS GA  1000      85                N/A     2/ 5
FRYING PAN BUOY  NOT AVBL
BUOY 41025       1000          VRB 12/ 14  1013.6R   3/ 7   2/160/ 7
CAPE LOOKOUT NC  0900   75     300/  9/ 10 1014.0R
BUOY 41002       0922   82 82  240/ 19/ 21 1016.7R   6/ 5   2/140/ 9
BUOY 41010       1000   83 83  210/ 12/ 14 1018.0R   3/ 7   2/130/ 7
BUOY 41012       NOT AVBL
ST AUGUSTINE FL  1000   77     240/  5/  6 1017.9R
CAPERS NEARSHORE 0900   83     280/ 12/ 16   N/A
FRIPP NEARSHORE  NOT AVBL


$$



USA.gov is the U.S. government's official web portal to all federal, state and local government web resources and services.